Location: Zagreb
(45.8000°N, 16.0000°E)
Time: 07:29:34
(UTC+01:00)

N. Korean satellite - Pass Details

Date: 07 December 2021
Orbit: 447 x 491 km, 97.3° (Epoch: 23 January)

Event Time Altitude Azimuth Distance (km) Brightness Sun altitude
Rises 05:57:02 0° 1° (N) 2,464 10.0 -14.4°
Reaches altitude 10° 05:59:16 10° 349° (N) 1,584 8.9 -14.0°
Maximum altitude 06:02:09 26° 290° (WNW) 912 7.3 -13.6°
Drops below altitude 10° 06:05:01 10° 232° (SW) 1,573 8.8 -13.1°
Sets 06:07:14 0° 219° (SW) 2,442 9.9 -12.7°
